Location: Calvatone
(45.1167°N, 10.4333°E)
Time: 20:48:14
(UTC+00:00)

Lacrosse 5 - Pass Details

Date: 28 January 2023
Orbit: 714 x 724 km, 57.0° (Epoch: 09 March)

Event Time Altitude Azimuth Distance (km) Brightness Sun altitude
Rises 18:36:39 0° 206° (SSW) 3,121 5.5 -24.2°
Reaches altitude 10° 18:39:07 10° 199° (SSW) 2,205 4.6 -24.6°
Enters shadow 18:42:20 33° 171° (S) 1,209 2.9 -25.2°
